National Weather Service Hourly Weather Roundup
NOAA NWS Hourly Roundups by Site
NOAA NWS Hourly Roundups by Site
Regional Weather Roundup for Sacramento, CA

To Select Another Site Choose from List

Select Site:  

000
ASUS46 KSTO 261515
RWRCA

NORTHERN AND CENTRAL CA REGIONAL WEATHER ROUNDUP
NATIONAL WEATHER SERVICE SACRAMENTO CA
700 AM PST FRI FEB 26 2021

NOTE: FAIR INDICATES FEW OR NO CLOUDS BELOW 12,000 FEET WITH NO
SIGNIFICANT WEATHER AND/OR OBSTRUCTIONS TO VISIBILITY.

CAZ001-003-261600-
NORTHWEST AREA

CITY           SKY/WX    TMP DP  RH WIND       PRES   REMARKS
CRESCENT CITY  CLOUDY    42  40  92 SE3       30.37F
UKIAH          CLEAR     38  32  79 CALM      30.26F
$$

CAZ006-505>513-261600-
BAY AREA

CITY           SKY/WX    TMP DP  RH WIND       PRES   REMARKS
SANTA ROSA     CLEAR     37  33  85 W3        30.21R
SAN RAFAEL     N/A       44  MM  MM MISG
NAPA           CLEAR     34  32  92 CALM      30.21R
CONCORD        CLEAR     41  33  73 SE5       30.20R
OAKLAND CITY   N/A       46  MM  MM MISG
OAKLAND        PTCLDY    45  39  79 N5        30.21R
SAN FRAN CITY  N/A       47  MM  80 MISG
SAN FRAN ARPT  CLEAR     49  43  80 NW9       30.20R
LIVERMORE      CLEAR     37  28  70 CALM      30.20R
HAYWARD        CLEAR     43  38  82 NE7       30.20R
REDWOOD CITY   N/A       39  MM  88 MISG
MOFFETT ARPT   CLEAR     41  37  87 CALM      30.20R
SAN JOSE ARPT  PTCLDY    42  33  70 CALM      30.20R
$$
CAZ034-037-514>518-261600-
CENTRAL COAST

CITY           SKY/WX    TMP DP  RH WIND       PRES   REMARKS
WATSONVILLE    CLEAR     36  31  82 CALM      30.19R
SALINAS        FOG       42  41  96 S7        30.19S VSB 1/4
MONTEREY       CLEAR     47  42  83 S6        30.19R
SAN LUIS OBISP CLEAR     45  26  47 E6        30.11S
SANTA MARIA    CLEAR     45  27  49 NW3       30.11S
HALF MOON BAY  FAIR      48  41  76 N8        30.21R HAZE
$$
CAZ015-016-261600-
NORTHERN SACRAMENTO VALLEY

CITY           SKY/WX    TMP DP  RH WIND       PRES   REMARKS
REDDING        CLEAR     34  27  75 CALM      30.17F
RED BLUFF      CLEAR     40  27  59 N9        30.18F WCI  34
OROVILLE       CLEAR     37  30  75 CALM      30.18S
$$
CAZ016>018-261600-
SOUTHERN SACRAMENTO VALLEY

CITY           SKY/WX    TMP DP  RH WIND       PRES   REMARKS
AUBURN         CLEAR     41  25  52 CALM      30.16S
BEALE AFB      CLEAR     38  30  75 NE3       30.17R
LINCOLN        FAIR      32  30  93 CALM      30.18R
MARYSVILLE     CLEAR     33  28  81 NW5       30.19R WCI  29
SAC INTL ARPT  CLEAR     34  30  85 NW5       30.18S WCI  30
MATHER AIRPORT CLEAR     32  28  86 CALM      30.17R
DOWNTOWN SAC   N/A       38  MM  MM MISG
SAC EXEC ARPT  CLEAR     36  30  79 NW3       30.19R
VACAVILLE      CLEAR     34  28  79 CALM      30.19S
TRAVIS AFB     CLEAR     34  31  87 CALM      30.19R
$$
CAZ019>021-261600-
SAN JOAQUIN VALLEY

CITY           SKY/WX    TMP DP  RH WIND       PRES   REMARKS
STOCKTON       CLEAR     36  29  75 S3        30.17S
MODESTO        CLEAR     34  32  92 CALM      30.17S
MERCED         CLEAR     34  30  85 W3        30.18R
LEMOORE        PTCLDY    31  23  72 S7        30.17S WCI  24
FRESNO         CLEAR     42  33  70 E3        30.18R
HANFORD        CLEAR     34  32  92 S3        30.18S FOG
PORTERVILLE    CLEAR     40  31  70 E5        30.18S
BAKERSFIELD    CLEAR     42  26  53 SE3       30.17S
$$
CAZ011-012-071-261600-
NORTHERN MOUNTAINS

CITY           SKY/WX    TMP DP  RH WIND       PRES   REMARKS
YREKA          CLEAR     23  18  81 S3        30.26F
MOUNT SHASTA   CLEAR     36  21  54 NW8       30.15F WCI  30
ALTURAS        MOCLDY    20  17  88 S6        30.13F WCI  12
$$
CAZ011-012-071-261600-
SIERRA NEVADA MTNS

CITY           SKY/WX    TMP DP  RH WIND       PRES   REMARKS
BLUE CANYON    CLEAR     40  10  29 S5        30.16S
TRUCKEE        CLEAR      9   7  92 CALM      30.17F
TAHOE VLY ARPT CLEAR     15   7  70 S6        30.15F WCI   6
MAMMOTH LAKES  FAIR      18   1  49 N5        30.16R WCI  11
$$


 

View Past Reports for Sacramento, CA.

Products Courtesy of NOAA-NWS
NWS Information Parsing Script by Ken True at Saratoga Weather - Script by SE Lincoln Weather.

powered by Cumulus v1.9.3 (1059)
Ambient Weather VWS v14.00
Top Website Map Copyright © 2007 - 2021 Foresthillweather.com Never base important decisions on this or any weather information obtained from the Internet